QPF
0.00 0.00 0.00 0.00 0.00 0.00 0.00 0.00 0.00 0.00 0.01 0.01 0.01 0.02 0.01 0.00 0.01 0.01 0.00 0.00 0.01 0.03 0.00 0.00 0.00 0.00 0.02 0.02 0.03 0.01 0.00 0.00 0.00 0.00 0.00 0.00 0.00 0.00 0.00 0.00 0.00 0.00 0.00 0.00 0.00 0.00 0.01 0.00 0.00 0.00 0.00 0.00 0.00 0.00
0.00 0.00 0.00 0.00 0.00 0.00 0.00 0.00 0.00 0.01 0.01 0.01 0.02 0.01 0.01 0.00 0.02 0.01 0.00 0.00 0.01 0.02 0.00 0.00 0.00 0.00 0.00 0.01 0.04 0.02 0.01 0.01 0.00 0.00 0.00 0.00 0.00 0.00 0.00 0.00 0.00 0.00 0.00 0.00 0.00 0.00 0.01 0.01 0.00 0.01 0.00 0.00 0.00 0.00
0.00 0.00 0.00 0.00 0.00 0.00 0.00 0.00 0.01 0.01 0.01 0.02 0.01 0.00 0.00 0.00 0.01 0.02 0.00 0.00 0.00 0.00 0.00 0.00 0.00 0.00 0.00 0.00 0.01 0.06 0.03 0.02 0.01 0.01 0.01 0.00 0.00 0.00 0.00 0.00 0.01 0.01 0.01 0.01 0.01 0.01 0.00 0.01 0.01 0.01 0.01 0.00 0.00 0.00
0.00 0.00 0.00 0.00 0.00 0.00 0.00 0.01 0.01 0.01 0.01 0.01 0.00 0.00 0.00 0.00 0.00 0.00 0.00 0.00 0.00 0.00 0.00 0.00 0.00 0.00 0.00 0.00 0.00 0.01 0.04 0.06 0.08 0.02 0.01 0.01 0.00 0.01 0.01 0.01 0.01 0.01 0.00 0.01 0.01 0.00 0.00 0.01 0.00 0.00 0.00 0.00 0.00 0.00
0.00 0.00 0.00 0.00 0.00 0.00 0.00 0.00 0.00 0.01 0.01 0.00 0.00 0.00 0.00 0.00 0.00 0.00 0.00 0.00 0.00 0.00 0.00 0.00 0.00 0.00 0.00 0.00 0.00 0.00 0.00 0.01 0.00 0.00 0.00 0.01 0.02 0.02 0.02 0.01 0.01 0.01 0.01 0.01 0.01 0.01 0.01 0.00 0.00 0.00 0.00 0.00 0.00 0.00
0.00 0.00 0.00 0.00 0.00 0.00 0.00 0.00 0.00 0.01 0.01 0.00 0.00 0.00 0.00 0.00 0.00 0.00 0.00 0.00 0.00 0.00 0.00 0.00 0.00 0.01 0.00 0.00 0.00 0.00 0.00 0.00 0.00 0.01 0.01 0.02 0.02 0.03 0.02 0.01 0.01 0.01 0.01 0.03 0.01 0.00 0.01 0.01 0.00 0.00 0.00 0.00 0.00 0.01
0.00 0.00 0.00 0.00 0.00 0.00 0.01 0.02 0.02 0.01 0.01 0.01 0.00 0.00 0.00 0.00 0.00 0.00 0.00 0.00 0.00 0.00 0.01 0.01 0.00 0.00 0.00 0.00 0.00 0.00 0.00 0.00 0.00 0.01 0.02 0.01 0.01 0.01 0.01 0.01 0.01 0.01 0.01 0.02 0.01 0.01 0.01 0.00 0.00 0.00 0.00 0.00 0.00 0.00
0.00 0.00 0.00 0.00 0.00 0.02 0.04 0.05 0.04 0.04 0.02 0.01 0.00 0.00 0.00 0.00 0.00 0.00 0.00 0.00 0.00 0.00 0.00 0.00 0.00 0.00 0.00 0.00 0.00 0.00 0.00 0.00 0.01 0.01 0.01 0.01 0.00 0.00 0.00 0.01 0.01 0.00 0.00 0.00 0.00 0.01 0.02 0.01 0.00 0.00 0.00 0.00 0.00 0.00
0.00 0.00 0.00 0.01 0.05 0.09 0.10 0.09 0.08 0.07 0.03 0.00 0.00 0.00 0.00 0.00 0.00 0.00 0.00 0.00 0.00 0.00 0.00 0.00 0.00 0.00 0.00 0.00 0.00 0.00 0.00 0.00 0.01 0.01 0.01 0.00 0.00 0.01 0.01 0.01 0.00 0.01 0.01 0.01 0.00 0.00 0.00 0.01 0.01 0.00 0.00 0.00 0.00 0.00
0.02 0.03 0.07 0.11 0.15 0.17 0.16 0.12 0.11 0.08 0.03 0.01 0.00 0.00 0.00 0.00 0.00 0.00 0.00 0.00 0.00 0.00 0.00 0.00 0.00 0.00 0.00 0.00 0.00 0.00 0.00 0.00 0.01 0.01 0.00 0.00 0.00 0.01 0.00 0.01 0.00 0.00 0.01 0.01 0.00 0.00 0.00 0.00 0.00 0.00 0.01 0.01 0.01 0.01
0.09 0.15 0.18 0.20 0.21 0.21 0.19 0.14 0.13 0.08 0.03 0.01 0.01 0.00 0.00 0.00 0.00 0.00 0.00 0.00 0.00 0.00 0.00 0.00 0.00 0.00 0.00 0.00 0.00 0.00 0.00 0.01 0.01 0.01 0.00 0.00 0.00 0.00 0.00 0.00 0.00 0.00 0.00 0.01 0.01 0.01 0.01 0.01 0.01 0.01 0.00 0.00 0.01 0.00
0.17 0.22 0.26 0.26 0.26 0.22 0.17 0.14 0.13 0.08 0.04 0.01 0.00 0.00 0.00 0.00 0.00 0.00 0.00 0.00 0.00 0.00 0.00 0.00 0.00 0.00 0.00 0.01 0.00 0.00 0.00 0.01 0.01 0.01 0.00 0.00 0.00 0.00 0.00 0.00 0.00 0.00 0.00 0.00 0.00 0.01 0.01 0.01 0.01 0.01 0.01 0.01 0.00 0.00
0.23 0.29 0.31 0.32 0.27 0.17 0.15 0.16 0.11 0.06 0.02 0.00 0.00 0.00 0.00 0.00 0.00 0.00 0.00 0.00 0.00 0.00 0.00 0.00 0.00 0.00 0.00 0.01 0.01 0.01 0.01 0.01 0.01 0.00 0.00 0.00 0.00 0.00 0.00 0.00 0.00 0.00 0.00 0.00 0.00 0.00 0.00 0.00 0.00 0.01 0.01 0.01 0.01 0.00
0.31 0.34 0.32 0.33 0.21 0.16 0.19 0.18 0.10 0.03 0.01 0.01 0.01 0.01 0.00 0.00 0.00 0.00 0.00 0.00 0.00 0.00 0.00 0.00 0.00 0.00 0.00 0.00 0.00 0.00 0.00 0.00 0.00 0.00 0.00 0.00 0.00 0.00 0.00 0.00 0.00 0.00 0.00 0.00 0.00 0.00 0.00 0.00 0.00 0.00 0.00 0.01 0.01 0.00
0.32 0.34 0.30 0.20 0.16 0.23 0.23 0.15 0.06 0.03 0.02 0.01 0.01 0.01 0.00 0.00 0.00 0.00 0.00 0.00 0.00 0.00 0.00 0.00 0.00 0.00 0.00 0.00 0.00 0.00 0.00 0.00 0.00 0.00 0.00 0.00 0.00 0.00 0.00 0.00 0.00 0.00 0.00 0.00 0.00 0.00 0.00 0.00 0.00 0.00 0.00 0.01 0.01 0.00
0.43 0.38 0.19 0.13 0.22 0.27 0.17 0.09 0.04 0.03 0.02 0.01 0.01 0.01 0.00 0.00 0.00 0.00 0.00 0.00 0.00 0.00 0.00 0.00 0.00 0.00 0.00 0.00 0.00 0.00 0.00 0.00 0.00 0.00 0.00 0.00 0.00 0.00 0.00 0.00 0.00 0.00 0.00 0.00 0.00 0.00 0.00 0.00 0.01 0.00 0.00 0.01 0.01 0.01
0.45 0.25 0.20 0.22 0.29 0.22 0.10 0.06 0.05 0.03 0.02 0.01 0.01 0.00 0.00 0.00 0.00 0.00 0.00 0.00 0.00 0.00 0.00 0.00 0.00 0.00 0.00 0.00 0.00 0.00 0.00 0.00 0.00 0.00 0.00 0.00 0.00 0.00 0.00 0.00 0.00 0.00 0.00 0.00 0.00 0.00 0.00 0.00 0.01 0.00 0.00 0.01 0.01 0.00
0.33 0.19 0.22 0.28 0.23 0.14 0.10 0.07 0.05 0.04 0.02 0.01 0.01 0.00 0.00 0.00 0.00 0.00 0.00 0.00 0.00 0.00 0.00 0.00 0.00 0.00 0.00 0.00 0.00 0.00 0.00 0.00 0.00 0.00 0.00 0.00 0.00 0.00 0.00 0.00 0.00 0.00 0.00 0.00 0.00 0.00 0.00 0.00 0.00 0.00 0.01 0.01 0.00 0.00
0.24 0.23 0.32 0.26 0.14 0.11 0.12 0.07 0.03 0.04 0.02 0.01 0.00 0.00 0.00 0.00 0.00 0.00 0.00 0.00 0.00 0.00 0.00 0.00 0.00 0.00 0.00 0.00 0.00 0.00 0.00 0.00 0.00 0.00 0.00 0.00 0.00 0.00 0.00 0.00 0.00 0.00 0.00 0.00 0.00 0.00 0.00 0.00 0.00 0.00 0.00 0.00 0.00 0.00
0.31 0.36 0.30 0.18 0.10 0.10 0.10 0.07 0.03 0.02 0.02 0.01 0.00 0.00 0.00 0.00 0.00 0.00 0.00 0.00 0.00 0.00 0.00 0.00 0.00 0.00 0.00 0.00 0.00 0.00 0.00 0.00 0.00 0.00 0.00 0.00 0.00 0.00 0.00 0.00 0.00 0.00 0.00 0.00 0.00 0.00 0.00 0.00 0.00 0.00 0.00 0.00 0.00 0.00
0.35 0.35 0.18 0.12 0.09 0.07 0.08 0.06 0.03 0.02 0.01 0.00 0.00 0.00 0.00 0.00 0.00 0.00 0.00 0.00 0.00 0.00 0.00 0.00 0.00 0.00 0.00 0.00 0.00 0.00 0.00 0.00 0.00 0.00 0.00 0.01 0.01 0.00 0.00 0.00 0.00 0.00 0.00 0.00 0.00 0.00 0.00 0.00 0.00 0.01 0.00 0.00 0.00 0.00
0.32 0.20 0.14 0.11 0.08 0.07 0.06 0.04 0.02 0.01 0.00 0.00 0.00 0.00 0.00 0.00 0.00 0.00 0.00 0.00 0.00 0.00 0.00 0.00 0.00 0.00 0.00 0.00 0.00 0.00 0.00 0.00 0.00 0.00 0.00 0.01 0.00 0.00 0.00 0.00 0.00 0.00 0.00 0.00 0.00 0.00 0.00 0.00 0.00 0.01 0.00 0.00 0.00 0.00
0.21 0.15 0.11 0.08 0.07 0.05 0.04 0.02 0.01 0.00 0.00 0.00 0.00 0.00 0.00 0.00 0.00 0.00 0.00 0.00 0.00 0.00 0.00 0.00 0.00 0.00 0.00 0.00 0.00 0.00 0.00 0.00 0.00 0.00 0.00 0.00 0.00 0.00 0.00 0.00 0.00 0.00 0.00 0.00 0.00 0.00 0.00 0.00 0.00 0.00 0.00 0.00 0.00 0.00
0.12 0.11 0.09 0.07 0.05 0.04 0.02 0.02 0.01 0.00 0.00 0.00 0.00 0.00 0.00 0.00 0.00 0.00 0.00 0.00 0.00 0.00 0.00 0.00 0.00 0.00 0.00 0.00 0.00 0.00 0.00 0.00 0.00 0.00 0.00 0.00 0.00 0.00 0.00 0.00 0.00 0.00 0.00 0.00 0.00 0.00 0.00 0.00 0.00 0.00 0.00 0.00 0.00 0.00
0.16 0.12 0.08 0.04 0.02 0.03 0.02 0.02 0.00 0.00 0.00 0.00 0.00 0.00 0.00 0.00 0.00 0.00 0.00 0.00 0.00 0.00 0.00 0.00 0.00 0.00 0.00 0.00 0.00 0.00 0.00 0.00 0.00 0.00 0.00 0.00 0.00 0.00 0.00 0.00 0.00 0.00 0.00 0.00 0.00 0.00 0.00 0.00 0.00 0.00 0.00 0.00 0.00 0.01
0.12 0.08 0.03 0.02 0.02 0.02 0.01 0.01 0.00 0.00 0.00 0.00 0.00 0.00 0.00 0.00 0.00 0.00 0.00 0.00 0.00 0.00 0.00 0.00 0.00 0.00 0.00 0.00 0.00 0.00 0.00 0.00 0.00 0.00 0.00 0.00 0.00 0.00 0.00 0.00 0.00 0.00 0.00 0.00 0.00 0.00 0.00 0.00 0.00 0.00 0.00 0.00 0.00 0.01
0.08 0.05 0.02 0.03 0.02 0.01 0.00 0.00 0.00 0.00 0.00 0.00 0.00 0.00 0.00 0.00 0.00 0.00 0.00 0.00 0.00 0.00 0.00 0.00 0.00 0.00 0.00 0.00 0.00 0.00 0.00 0.00 0.00 0.00 0.00 0.00 0.00 0.00 0.00 0.00 0.00 0.00 0.01 0.01 0.00 0.01 0.00 0.00 0.00 0.00 0.00 0.00 0.00 0.00
0.05 0.05 0.05 0.03 0.01 0.00 0.00 0.00 0.00 0.00 0.00 0.00 0.00 0.00 0.00 0.00 0.00 0.00 0.00 0.00 0.00 0.00 0.00 0.00 0.00 0.00 0.00 0.00 0.00 0.00 0.00 0.00 0.00 0.00 0.00 0.00 0.00 0.00 0.00 0.00 0.00 0.01 0.01 0.00 0.01 0.01 0.00 0.00 0.00 0.00 0.00 0.00 0.00 0.00
0.04 0.04 0.02 0.01 0.00 0.00 0.00 0.00 0.00 0.00 0.00 0.00 0.00 0.00 0.00 0.00 0.00 0.00 0.00 0.00 0.00 0.00 0.00 0.00 0.00 0.00 0.00 0.00 0.00 0.00 0.00 0.00 0.00 0.00 0.00 0.00 0.00 0.00 0.00 0.00 0.00 0.00 0.00 0.00 0.00 0.00 0.01 0.02 0.01 0.01 0.00 0.00 0.00 0.00
0.03 0.02 0.01 0.00 0.00 0.00 0.00 0.00 0.00 0.00 0.00 0.00 0.00 0.00 0.00 0.00 0.00 0.00 0.00 0.00 0.00 0.00 0.00 0.00 0.00 0.00 0.00 0.00 0.00 0.00 0.00 0.00 0.00 0.00 0.00 0.00 0.00 0.00 0.00 0.00 0.00 0.00 0.00 0.00 0.00 0.00 0.00 0.00 0.00 0.00 0.00 0.00 0.00 0.00
0.01 0.00 0.00 0.00 0.00 0.00 0.00 0.00 0.00 0.00 0.00 0.00 0.00 0.00 0.00 0.00 0.00 0.00 0.00 0.00 0.00 0.00 0.00 0.00 0.00 0.00 0.00 0.00 0.00 0.00 0.00 0.00 0.00 0.00 0.00 0.00 0.00 0.00 0.00 0.00 0.00 0.00 0.00 0.00 0.00 0.00 0.00 0.00 0.00 0.00 0.00 0.00 0.00 0.00
0.00 0.00 0.00 0.00 0.00 0.00 0.00 0.00 0.00 0.00 0.00 0.00 0.00 0.00 0.00 0.00 0.00 0.00 0.00 0.00 0.00 0.00 0.00 0.00 0.00 0.00 0.00 0.00 0.00 0.00 0.00 0.00 0.00 0.00 0.00 0.00 0.00 0.00 0.00 0.00 0.00 0.00 0.00 0.00 0.00 0.00 0.00 0.00 0.00 0.00 0.00 0.00 0.00 0.00
0.00 0.00 0.00 0.00 0.00 0.00 0.00 0.00 0.00 0.00 0.00 0.00 0.00 0.00 0.00 0.00 0.00 0.00 0.00 0.00 0.00 0.00 0.00 0.00 0.00 0.00 0.00 0.00 0.00 0.00 0.00 0.00 0.00 0.00 0.01 0.01 0.01 0.03 0.01 0.00 0.00 0.00 0.00 0.00 0.00 0.00 0.00 0.00 0.00 0.00 0.00 0.00 0.00 0.00
MSLP
1025.18 1024.75 1024.26 1023.71 1023.29 1022.98 1022.62 1022.10 1021.64 1021.11 1020.57 1020.03 1019.53 1019.07 1018.76 1018.57 1018.30 1018.27 1018.17 1018.45 1018.76 1018.65 1018.42 1018.56 1018.80 1018.84 1018.94 1019.06 1018.94 1018.47 1018.41 1018.52 1018.64 1019.64 1020.49 1020.88 1021.51 1021.82 1022.59 1023.11 1023.72 1024.55 1025.41 1025.83 1026.41 1026.69 1026.78 1025.67 1024.99 1025.60 1027.13 1026.45 1026.13 1025.97
1024.56 1024.22 1023.74 1023.31 1022.86 1022.46 1021.99 1021.50 1021.04 1020.57 1020.04 1019.45 1018.99 1018.85 1018.66 1018.45 1018.15 1017.99 1018.29 1018.31 1018.42 1018.75 1018.57 1018.29 1018.16 1018.25 1018.41 1018.35 1018.35 1018.25 1018.51 1018.81 1018.84 1019.60 1020.92 1021.51 1021.90 1022.87 1022.93 1024.09 1024.53 1025.48 1026.01 1026.33 1026.73 1026.98 1027.12 1027.01 1026.88 1026.98 1026.94 1026.65 1026.19 1025.93
1023.83 1023.43 1023.10 1022.69 1022.30 1021.82 1021.32 1020.83 1020.38 1020.00 1019.55 1019.05 1018.67 1018.49 1018.38 1018.22 1017.98 1017.85 1018.12 1018.49 1018.94 1019.26 1018.85 1018.56 1018.32 1018.31 1018.15 1018.31 1018.15 1018.37 1018.30 1018.51 1018.90 1019.46 1020.24 1020.85 1021.19 1021.52 1023.04 1024.28 1025.07 1026.06 1026.15 1026.36 1026.48 1027.04 1026.90 1027.12 1027.08 1026.95 1026.79 1026.48 1026.19 1026.01
1023.02 1022.67 1022.27 1021.79 1021.44 1021.17 1020.70 1020.14 1019.70 1019.34 1018.90 1018.46 1018.25 1018.17 1018.00 1017.73 1017.66 1017.52 1018.27 1018.71 1018.83 1019.06 1019.41 1018.89 1018.34 1018.46 1018.56 1018.51 1018.32 1018.33 1018.47 1018.37 1018.74 1019.23 1019.80 1020.60 1021.65 1021.67 1023.60 1025.21 1026.48 1027.74 1027.32 1027.44 1026.90 1026.98 1026.50 1026.82 1026.98 1027.04 1026.73 1026.31 1025.89 1025.49
1022.15 1021.75 1021.40 1020.92 1020.43 1020.30 1019.99 1019.48 1019.03 1018.68 1018.37 1018.14 1017.93 1017.78 1017.74 1017.65 1017.80 1018.07 1018.43 1018.84 1018.57 1019.12 1019.32 1019.21 1018.91 1019.11 1018.92 1018.74 1018.50 1018.26 1018.48 1018.80 1019.22 1019.74 1020.29 1021.31 1022.19 1023.42 1025.16 1026.54 1028.57 1029.10 1029.07 1028.80 1028.32 1028.42 1028.23 1027.46 1027.15 1026.94 1026.75 1026.40 1025.89 1025.29
1021.15 1020.85 1020.45 1020.05 1019.72 1019.39 1019.18 1018.73 1018.33 1018.04 1017.92 1017.89 1017.74 1017.49 1017.49 1017.70 1017.94 1018.49 1018.79 1019.20 1019.00 1019.08 1019.52 1019.89 1020.01 1019.98 1019.67 1019.32 1019.20 1019.18 1019.15 1019.32 1019.71 1020.23 1021.56 1023.07 1024.33 1024.48 1026.42 1028.54 1030.34 1030.31 1030.12 1029.71 1029.73 1029.03 1028.26 1027.75 1027.39 1027.18 1026.86 1026.49 1026.08 1025.72
1020.03 1019.74 1019.52 1019.23 1018.89 1018.60 1018.31 1017.95 1017.62 1017.44 1017.56 1017.70 1017.62 1017.52 1017.68 1017.89 1018.40 1018.65 1019.16 1019.06 1018.92 1019.19 1020.10 1020.92 1021.25 1021.11 1020.95 1020.56 1020.52 1020.60 1020.56 1020.77 1021.02 1022.15 1023.69 1025.31 1026.20 1026.81 1028.76 1030.58 1031.28 1031.13 1030.86 1030.29 1030.09 1029.38 1028.46 1028.14 1027.79 1027.37 1027.08 1026.56 1026.07 1025.65
1018.98 1018.79 1018.46 1018.14 1017.87 1017.59 1017.36 1017.20 1016.99 1017.19 1017.42 1017.49 1017.59 1017.64 1017.90 1018.21 1018.41 1018.99 1019.52 1019.02 1018.94 1019.76 1021.25 1022.85 1023.36 1022.84 1022.95 1022.86 1022.91 1022.76 1022.67 1022.44 1023.11 1024.14 1026.00 1027.31 1028.42 1029.85 1031.76 1032.53 1032.37 1032.06 1031.47 1030.87 1030.77 1030.23 1029.63 1028.90 1028.19 1027.63 1027.18 1026.69 1026.12 1025.62
1017.84 1017.61 1017.30 1017.00 1016.79 1016.65 1016.56 1016.48 1016.70 1017.01 1017.34 1017.45 1017.60 1017.88 1018.48 1018.90 1019.25 1019.47 1019.43 1019.61 1020.34 1021.71 1023.88 1026.05 1027.18 1026.33 1025.03 1025.01 1025.03 1024.73 1024.94 1025.11 1025.26 1026.64 1027.83 1029.21 1031.18 1033.00 1033.95 1033.63 1033.25 1032.95 1032.65 1032.08 1031.33 1030.63 1030.00 1029.42 1028.75 1028.09 1027.50 1026.89 1026.39 1025.82
1016.47 1016.34 1016.13 1015.95 1015.83 1015.71 1015.78 1016.04 1016.54 1016.91 1017.35 1017.62 1018.19 1018.62 1019.20 1019.59 1019.26 1019.38 1020.04 1020.88 1022.44 1025.12 1026.45 1029.05 1029.63 1028.84 1028.26 1027.71 1027.07 1027.41 1027.47 1027.32 1027.63 1028.80 1029.64 1031.41 1033.87 1034.46 1034.76 1034.52 1034.10 1033.59 1033.01 1032.47 1031.90 1030.96 1030.36 1029.82 1029.30 1028.56 1027.90 1027.20 1026.65 1026.05
1015.11 1015.02 1014.92 1014.89 1014.86 1014.92 1015.05 1015.62 1016.20 1016.74 1017.65 1018.09 1018.54 1019.21 1019.82 1019.66 1019.84 1021.29 1023.20 1024.81 1026.99 1028.97 1030.09 1030.92 1031.14 1030.83 1029.48 1029.74 1029.56 1029.47 1029.77 1028.73 1029.13 1030.27 1031.28 1033.64 1035.01 1035.47 1035.26 1035.07 1034.62 1033.95 1033.34 1032.91 1032.60 1031.96 1031.20 1030.52 1029.77 1028.97 1028.08 1027.32 1026.61 1026.00
1013.70 1013.67 1013.77 1013.87 1013.94 1014.25 1014.88 1015.55 1016.10 1017.14 1017.74 1018.03 1018.61 1019.63 1020.45 1021.81 1022.68 1023.86 1026.75 1028.31 1029.65 1031.47 1031.97 1032.15 1032.13 1031.89 1031.00 1030.31 1030.66 1030.27 1030.51 1029.93 1030.93 1031.57 1033.18 1035.29 1036.06 1036.14 1035.81 1035.56 1035.01 1034.29 1033.63 1033.07 1032.66 1032.04 1031.15 1030.38 1029.71 1029.03 1028.26 1027.44 1026.70 1026.03
1012.27 1012.37 1012.53 1012.72 1013.11 1014.02 1014.63 1015.35 1016.02 1016.73 1017.54 1018.39 1019.39 1021.02 1022.20 1024.45 1025.62 1027.10 1029.20 1030.27 1031.20 1032.27 1033.10 1033.30 1033.26 1032.78 1031.82 1031.52 1031.56 1031.68 1031.81 1032.18 1032.31 1033.97 1035.49 1036.50 1036.78 1036.78 1036.41 1036.03 1035.39 1034.69 1034.04 1033.37 1032.81 1032.22 1031.31 1030.43 1029.65 1029.09 1028.33 1027.45 1026.72 1026.03
1010.94 1011.21 1011.39 1011.63 1012.72 1013.78 1014.30 1015.21 1016.11 1017.06 1017.94 1019.98 1021.42 1023.40 1024.92 1026.70 1028.03 1029.19 1030.45 1031.46 1032.10 1032.79 1033.58 1034.05 1034.40 1034.26 1033.52 1033.28 1033.45 1033.80 1034.07 1033.86 1035.24 1036.50 1037.12 1037.42 1037.42 1037.35 1037.08 1036.49 1036.24 1035.31 1034.46 1033.67 1032.99 1032.40 1031.56 1030.72 1029.83 1029.11 1028.40 1027.64 1026.92 1026.18
1010.00 1010.06 1010.45 1011.46 1012.72 1013.38 1014.19 1015.38 1016.69 1017.95 1019.85 1021.96 1023.01 1025.18 1026.84 1028.33 1029.33 1030.42 1031.52 1032.25 1032.80 1033.44 1034.10 1034.61 1034.93 1035.30 1035.25 1035.38 1036.16 1036.00 1036.55 1037.26 1037.94 1037.99 1038.04 1037.98 1037.74 1037.67 1037.58 1037.31 1036.74 1035.75 1034.84 1033.97 1033.21 1032.58 1031.71 1030.78 1029.96 1029.17 1028.42 1027.76 1027.06 1026.33
1009.21 1010.42 1010.90 1012.04 1012.93 1013.59 1014.89 1016.12 1017.45 1019.52 1022.60 1024.08 1025.42 1026.78 1027.91 1028.71 1030.12 1030.96 1031.90 1032.65 1033.23 1033.76 1034.39 1035.09 1036.13 1036.57 1037.75 1037.91 1038.35 1038.75 1038.95 1038.67 1038.66 1038.88 1038.35 1037.69 1037.69 1037.75 1037.75 1036.97 1036.31 1035.63 1034.93 1034.19 1033.52 1032.77 1031.84 1030.86 1030.06 1029.28 1028.50 1027.82 1027.19 1026.51
1008.89 1010.63 1011.73 1012.38 1013.20 1014.31 1015.58 1016.99 1019.38 1021.97 1024.10 1025.66 1027.13 1027.37 1028.16 1029.15 1030.22 1031.06 1031.76 1032.32 1032.97 1033.85 1035.10 1035.80 1037.23 1038.20 1038.56 1039.07 1039.54 1039.54 1039.19 1038.66 1038.31 1037.90 1037.45 1037.47 1037.50 1037.45 1036.89 1036.55 1035.97 1035.50 1034.92 1034.29 1033.58 1032.76 1031.80 1030.71 1029.82 1029.16 1028.51 1027.77 1027.19 1026.68
1009.29 1010.26 1011.33 1012.35 1012.92 1014.68 1017.02 1018.75 1021.04 1023.42 1025.85 1027.19 1027.57 1028.46 1029.11 1029.82 1030.74 1031.41 1032.04 1032.45 1033.02 1033.80 1034.95 1036.31 1037.28 1038.49 1039.25 1039.27 1039.12 1038.29 1037.99 1037.51 1037.16 1036.99 1036.88 1036.59 1036.42 1036.36 1036.27 1036.04 1035.59 1035.22 1034.78 1034.26 1033.57 1032.83 1031.68 1030.77 1030.02 1029.30 1028.67 1027.94 1027.26 1026.84
1009.02 1010.17 1011.26 1012.11 1012.85 1014.87 1018.28 1020.96 1021.81 1024.39 1026.81 1027.84 1028.44 1028.91 1029.54 1030.50 1031.43 1031.84 1032.36 1032.98 1033.53 1034.04 1035.21 1036.75 1038.02 1038.82 1038.69 1038.13 1037.61 1037.13 1036.70 1036.68 1036.27 1035.88 1035.76 1035.53 1035.61 1035.64 1035.42 1035.15 1034.88 1034.82 1034.50 1033.91 1033.25 1032.44 1031.55 1030.76 1030.20 1029.51 1028.94 1028.23 1027.68 1027.24
1009.02 1010.56 1011.73 1012.55 1013.11 1016.08 1019.72 1022.18 1022.84 1024.22 1026.49 1027.73 1028.64 1029.55 1030.18 1030.95 1031.87 1032.53 1032.93 1033.28 1033.88 1034.89 1036.24 1037.88 1038.12 1037.72 1037.72 1037.15 1036.66 1036.36 1035.99 1035.71 1035.57 1035.15 1034.99 1034.92 1034.74 1034.85 1034.53 1034.34 1034.17 1033.92 1033.65 1033.15 1032.51 1031.23 1030.92 1030.48 1029.93 1029.48 1028.93 1028.45 1028.13 1027.55
1009.97 1011.54 1012.38 1013.27 1015.68 1017.80 1020.69 1022.64 1024.19 1025.52 1026.82 1028.02 1029.15 1029.84 1031.11 1031.79 1032.53 1033.45 1034.10 1034.35 1034.72 1035.96 1036.66 1036.89 1036.95 1036.31 1036.20 1036.10 1036.14 1036.00 1035.77 1035.49 1035.19 1034.98 1034.57 1034.09 1033.79 1033.81 1033.78 1033.52 1033.34 1033.19 1033.10 1032.82 1032.29 1031.52 1030.87 1030.59 1030.06 1029.47 1029.15 1028.76 1028.30 1027.95
1009.99 1011.18 1012.89 1014.47 1017.13 1019.86 1022.08 1023.46 1024.21 1025.76 1027.33 1028.72 1029.79 1030.57 1031.74 1032.77 1033.70 1034.58 1035.02 1035.26 1035.90 1035.32 1035.43 1035.51 1035.67 1035.91 1035.92 1035.84 1035.80 1035.68 1035.31 1035.11 1034.89 1034.59 1034.15 1033.78 1033.60 1033.53 1033.38 1033.20 1032.87 1032.90 1032.73 1032.40 1031.98 1031.45 1030.95 1030.50 1029.94 1029.46 1029.30 1028.85 1028.65 1028.17
1011.08 1012.22 1013.70 1015.30 1018.16 1020.72 1024.17 1024.37 1024.90 1026.39 1027.83 1029.47 1030.40 1031.46 1032.74 1033.67 1034.45 1035.17 1035.70 1035.52 1035.11 1034.02 1034.04 1034.55 1034.77 1034.89 1035.18 1035.13 1035.21 1035.06 1034.85 1034.90 1034.73 1034.54 1034.36 1034.07 1033.80 1033.58 1033.27 1033.06 1033.03 1032.79 1032.42 1032.01 1031.66 1031.27 1030.83 1030.33 1030.14 1029.67 1029.44 1029.17 1028.89 1028.40
1012.79 1014.50 1015.88 1017.38 1019.14 1022.40 1023.83 1024.64 1025.51 1026.80 1028.49 1029.65 1030.66 1032.05 1033.27 1034.12 1034.94 1035.42 1035.73 1035.26 1033.94 1033.62 1033.95 1033.94 1034.25 1034.65 1034.89 1035.03 1034.98 1034.63 1034.42 1034.31 1034.53 1034.46 1034.27 1034.15 1033.92 1033.60 1033.38 1033.08 1032.79 1032.46 1032.14 1031.75 1031.39 1031.01 1030.74 1030.49 1030.04 1029.86 1029.65 1029.43 1029.08 1028.66
1013.86 1017.81 1018.22 1019.32 1020.35 1021.60 1023.19 1024.47 1025.48 1026.61 1028.39 1029.73 1030.94 1032.54 1033.66 1034.47 1034.92 1035.46 1035.07 1034.08 1033.75 1033.33 1033.41 1033.39 1033.66 1034.01 1034.35 1034.32 1034.06 1034.03 1033.89 1034.08 1034.40 1034.45 1034.09 1034.02 1033.90 1033.58 1033.29 1032.87 1032.43 1031.98 1031.53 1031.33 1031.11 1030.86 1030.57 1030.26 1029.97 1029.71 1029.54 1029.38 1029.09 1028.61
1015.95 1018.61 1019.21 1019.91 1020.75 1021.02 1022.62 1023.87 1024.96 1026.49 1028.03 1029.84 1031.39 1032.86 1033.72 1034.28 1034.65 1034.32 1033.48 1032.67 1032.83 1032.50 1032.64 1032.72 1033.08 1033.55 1033.59 1033.47 1033.58 1033.66 1033.74 1033.76 1034.10 1034.35 1033.98 1033.77 1033.74 1033.67 1033.27 1032.89 1032.32 1031.64 1031.19 1031.05 1030.86 1030.52 1030.16 1029.82 1029.56 1029.36 1029.25 1029.07 1028.74 1028.40
1016.86 1018.77 1019.52 1020.10 1020.74 1021.58 1023.09 1024.28 1025.16 1026.13 1027.80 1029.22 1030.86 1032.44 1033.10 1033.58 1033.17 1032.39 1031.60 1031.68 1031.86 1031.58 1031.60 1031.94 1032.43 1032.92 1033.12 1033.21 1033.24 1033.31 1033.41 1033.63 1033.84 1033.80 1033.46 1033.40 1033.28 1033.14 1032.89 1032.51 1032.00 1031.40 1030.89 1030.69 1030.39 1030.01 1029.67 1029.34 1029.14 1028.99 1028.85 1028.66 1028.57 1028.51
1017.81 1018.61 1019.28 1020.70 1021.38 1022.18 1023.27 1024.68 1025.86 1026.77 1027.65 1028.59 1029.84 1031.26 1031.28 1030.92 1031.03 1030.78 1030.68 1030.74 1030.88 1031.26 1031.82 1032.27 1032.35 1032.64 1032.96 1033.13 1033.23 1033.38 1033.63 1033.63 1033.47 1033.27 1033.09 1032.93 1032.66 1032.38 1032.17 1031.92 1031.60 1030.47 1030.08 1030.33 1029.77 1029.59 1029.26 1028.91 1028.66 1028.50 1028.41 1028.32 1028.18 1027.98
1018.56 1019.32 1019.81 1021.74 1022.72 1023.80 1025.31 1026.24 1027.00 1027.60 1028.05 1028.59 1029.24 1029.78 1029.99 1030.02 1030.03 1030.21 1030.43 1030.59 1031.12 1031.64 1032.47 1032.77 1033.10 1033.24 1033.39 1033.39 1033.40 1033.47 1033.63 1033.94 1034.03 1034.01 1033.81 1033.64 1033.01 1032.20 1031.79 1031.69 1031.50 1031.33 1031.07 1030.72 1029.95 1029.38 1028.67 1027.87 1028.21 1028.21 1028.49 1028.48 1028.22 1027.96
1019.62 1020.12 1021.01 1022.91 1024.50 1026.68 1028.23 1028.80 1028.92 1029.12 1029.23 1029.39 1029.66 1029.93 1029.97 1029.94 1030.11 1030.21 1030.37 1030.99 1031.58 1031.91 1032.06 1032.36 1032.68 1033.17 1033.65 1033.89 1033.93 1033.72 1033.43 1033.40 1033.55 1033.88 1033.90 1033.64 1032.75 1032.01 1031.68 1031.36 1031.13 1030.97 1031.16 1030.95 1030.60 1030.17 1029.28 1029.07 1029.13 1029.00 1029.04 1028.86 1028.56 1028.34
1020.19 1020.90 1022.61 1024.89 1027.37 1029.06 1029.85 1030.18 1030.07 1030.01 1030.53 1030.69 1031.03 1030.82 1031.12 1030.73 1030.04 1030.00 1030.22 1030.56 1031.00 1031.41 1032.01 1032.56 1032.84 1032.78 1033.05 1033.45 1033.62 1033.33 1033.32 1033.02 1033.11 1033.18 1033.05 1032.62 1031.99 1031.50 1031.09 1030.70 1030.59 1030.48 1031.10 1030.99 1030.91 1030.89 1030.81 1030.58 1030.55 1030.23 1029.97 1029.82 1029.59 1029.40
1021.36 1022.32 1023.59 1026.33 1029.01 1030.11 1030.65 1030.93 1030.97 1030.99 1031.49 1031.43 1031.95 1031.60 1031.37 1031.20 1030.85 1029.87 1029.41 1030.18 1030.93 1031.36 1031.01 1031.22 1031.87 1031.77 1031.75 1031.85 1031.99 1031.98 1031.81 1032.27 1032.59 1032.70 1032.44 1031.62 1030.53 1030.05 1029.94 1029.90 1030.44 1030.67 1030.86 1030.83 1030.94 1031.10 1031.21 1031.30 1031.06 1030.81 1030.59 1030.35 1030.10 1029.87
1023.06 1023.81 1024.85 1027.05 1029.59 1030.61 1030.96 1031.09 1031.69 1031.90 1031.84 1032.50 1032.44 1032.56 1032.51 1032.26 1031.18 1029.26 1029.16 1029.27 1029.13 1029.19 1029.52 1029.77 1030.06 1030.38 1030.64 1030.90 1031.19 1031.37 1031.15 1031.79 1031.88 1030.33 1029.49 1029.08 1027.73 1027.41 1028.83 1029.33 1029.89 1030.12 1030.26 1030.40 1030.63 1030.86 1031.21 1031.30 1031.11 1030.89 1030.65 1030.40 1030.13 1029.87
Thickness
5539 5538 5536 5535 5532 5528 5524 5520 5515 5510 5505 5500 5495 5489 5482 5474 5466 5457 5447 5432 5418 5409 5401 5383 5370 5361 5346 5333 5326 5324 5310 5300 5290 5258 5248 5246 5233 5206 5201 5191 5176 5183 5167 5170 5140 5129 5181 5172 5180 5173 5158 5163 5169 5171
5536 5534 5532 5530 5527 5524 5521 5517 5513 5508 5503 5499 5493 5484 5474 5466 5458 5449 5438 5427 5413 5401 5390 5381 5369 5357 5345 5335 5328 5313 5303 5285 5273 5244 5218 5216 5217 5169 5173 5194 5171 5168 5146 5151 5148 5141 5137 5143 5138 5141 5147 5155 5162 5166
5533 5531 5529 5527 5524 5520 5517 5514 5509 5504 5498 5494 5487 5479 5470 5460 5451 5440 5429 5416 5402 5390 5380 5370 5362 5350 5339 5326 5316 5307 5293 5278 5265 5247 5231 5219 5209 5202 5179 5173 5161 5146 5146 5151 5149 5133 5138 5128 5132 5136 5138 5141 5149 5155
5532 5529 5527 5524 5520 5516 5513 5510 5506 5500 5495 5489 5481 5472 5463 5455 5445 5436 5421 5407 5394 5379 5365 5359 5355 5342 5328 5317 5306 5294 5280 5268 5253 5240 5232 5216 5196 5191 5157 5140 5128 5115 5121 5115 5131 5120 5120 5120 5118 5117 5125 5134 5139 5145
5528 5526 5523 5520 5518 5512 5508 5505 5500 5495 5489 5482 5474 5465 5456 5447 5435 5424 5411 5397 5388 5370 5343 5348 5344 5330 5318 5306 5295 5285 5270 5256 5239 5213 5208 5188 5177 5160 5134 5116 5089 5088 5086 5090 5096 5089 5090 5097 5103 5106 5106 5113 5123 5132
5525 5522 5519 5516 5513 5509 5503 5499 5495 5488 5481 5473 5465 5457 5447 5436 5423 5410 5400 5387 5375 5365 5347 5318 5326 5314 5303 5294 5281 5269 5257 5241 5222 5208 5186 5159 5144 5142 5112 5087 5066 5065 5066 5070 5065 5070 5076 5085 5086 5090 5094 5100 5107 5113
5521 5518 5515 5511 5507 5503 5498 5493 5487 5481 5472 5462 5455 5445 5434 5423 5411 5396 5379 5371 5363 5351 5337 5317 5300 5298 5282 5278 5263 5247 5233 5218 5211 5185 5156 5130 5113 5104 5079 5057 5051 5049 5048 5053 5051 5056 5067 5069 5070 5076 5081 5087 5094 5101
5516 5513 5510 5507 5503 5498 5492 5486 5479 5471 5460 5451 5441 5432 5420 5408 5397 5382 5369 5364 5353 5340 5317 5283 5278 5274 5259 5252 5236 5217 5205 5199 5180 5158 5129 5106 5088 5067 5041 5035 5034 5034 5035 5039 5035 5040 5046 5051 5058 5063 5068 5074 5081 5088
5511 5509 5506 5503 5498 5492 5485 5478 5469 5459 5447 5437 5426 5416 5405 5392 5377 5367 5357 5348 5336 5321 5276 5241 5215 5224 5233 5221 5207 5192 5166 5160 5150 5120 5107 5086 5041 5024 5019 5019 5020 5019 5016 5018 5024 5031 5035 5038 5043 5050 5055 5062 5067 5074
5509 5505 5501 5497 5492 5485 5477 5469 5457 5447 5434 5422 5409 5398 5384 5374 5364 5356 5339 5320 5297 5268 5248 5216 5193 5200 5196 5181 5168 5150 5115 5117 5106 5092 5072 5039 5019 5017 5008 5006 5007 5008 5009 5011 5012 5020 5024 5028 5032 5038 5045 5051 5057 5063
5505 5501 5496 5491 5485 5477 5470 5458 5448 5434 5419 5406 5392 5381 5367 5358 5348 5321 5293 5281 5241 5231 5213 5194 5180 5170 5172 5153 5135 5125 5092 5098 5097 5076 5052 5010 5004 5002 5000 4993 4994 4998 5001 5001 5002 5007 5012 5017 5022 5029 5036 5044 5050 5057
5500 5495 5488 5484 5477 5468 5457 5445 5433 5418 5403 5392 5380 5363 5349 5324 5311 5300 5239 5238 5228 5209 5186 5169 5165 5154 5144 5144 5120 5114 5103 5105 5068 5066 5028 4999 4998 4991 4988 4985 4987 4988 4992 4994 4995 4998 5005 5011 5016 5021 5027 5034 5042 5049
5493 5488 5483 5477 5468 5457 5445 5433 5419 5405 5392 5377 5359 5339 5329 5295 5290 5277 5246 5233 5214 5196 5174 5161 5149 5130 5131 5122 5104 5094 5083 5066 5065 5023 5007 4987 4989 4984 4980 4973 4977 4977 4978 4982 4985 4989 4995 5001 5008 5012 5019 5027 5032 5038
5485 5478 5474 5468 5457 5442 5431 5417 5403 5390 5376 5351 5339 5318 5296 5279 5253 5243 5231 5207 5194 5173 5161 5144 5117 5115 5108 5106 5079 5070 5057 5051 5010 4976 4975 4976 4974 4970 4964 4959 4957 4962 4962 4966 4969 4973 4980 4987 4994 5002 5008 5016 5022 5029
5471 5469 5463 5452 5439 5428 5415 5400 5386 5372 5349 5328 5317 5291 5268 5246 5229 5212 5196 5189 5176 5152 5145 5124 5115 5101 5080 5071 5037 5031 5013 4961 4966 4966 4959 4959 4960 4950 4941 4941 4941 4946 4948 4955 4956 4958 4964 4971 4978 4987 4996 5003 5010 5018
5453 5445 5442 5431 5420 5409 5393 5379 5366 5345 5313 5296 5279 5266 5250 5240 5216 5204 5186 5174 5159 5144 5131 5113 5083 5067 5049 5027 5027 4989 4975 4966 4968 4946 4960 4956 4954 4936 4930 4930 4935 4932 4932 4938 4942 4945 4951 4957 4963 4971 4980 4988 4996 5005
5434 5422 5416 5409 5399 5387 5374 5359 5336 5310 5290 5274 5252 5247 5236 5223 5208 5194 5180 5171 5152 5139 5117 5094 5074 5055 5026 5000 5002 4982 4974 4966 4968 4968 4958 4957 4941 4935 4927 4926 4929 4925 4925 4927 4928 4933 4939 4947 4955 4961 4967 4976 4983 4989
5415 5409 5400 5392 5385 5368 5347 5332 5311 5288 5264 5248 5242 5226 5216 5207 5195 5183 5170 5158 5147 5139 5117 5086 5067 5029 5007 5006 5000 4987 4974 4969 4968 4965 4960 4949 4935 4930 4923 4923 4924 4918 4919 4916 4917 4917 4929 4936 4944 4951 4957 4965 4973 4978
5402 5392 5383 5376 5371 5354 5326 5301 5295 5268 5246 5232 5222 5216 5207 5193 5179 5168 5157 5145 5129 5117 5099 5056 5034 5017 5030 5013 5003 4988 4980 4977 4979 4970 4955 4940 4931 4925 4920 4917 4915 4911 4908 4906 4910 4914 4921 4923 4929 4939 4946 4955 4961 4967
5381 5370 5364 5358 5354 5331 5301 5279 5274 5260 5240 5226 5214 5202 5193 5183 5167 5153 5143 5133 5119 5095 5073 5045 5038 5032 5021 5010 5008 5006 4998 4988 4977 4968 4956 4941 4932 4921 4922 4918 4915 4909 4908 4906 4909 4921 4919 4920 4926 4931 4936 4945 4948 4956
5358 5347 5345 5341 5322 5303 5280 5264 5248 5237 5223 5209 5198 5192 5174 5164 5152 5137 5118 5113 5099 5065 5055 5046 5036 5034 5018 5015 5005 4999 4990 4982 4971 4959 4951 4943 4939 4930 4922 4915 4914 4912 4908 4907 4907 4911 4913 4912 4917 4923 4926 4930 4937 4944
5343 5335 5326 5316 5295 5274 5255 5243 5238 5224 5208 5194 5184 5176 5162 5152 5137 5117 5100 5090 5072 5075 5062 5050 5040 5033 5028 5016 5003 4991 4984 4976 4967 4958 4950 4942 4932 4925 4920 4915 4914 4908 4905 4904 4905 4906 4908 4909 4913 4917 4916 4922 4926 4933
5320 5313 5305 5296 5276 5258 5229 5227 5224 5211 5201 5179 5169 5165 5148 5135 5116 5102 5093 5076 5076 5073 5064 5054 5044 5036 5029 5015 5000 4992 4985 4975 4965 4955 4946 4936 4930 4923 4918 4913 4908 4906 4905 4905 4905 4905 4906 4908 4906 4910 4911 4912 4916 4922
5290 5279 5273 5266 5254 5227 5221 5215 5207 5197 5183 5178 5172 5156 5135 5119 5101 5086 5089 5076 5081 5071 5064 5052 5046 5036 5023 5010 5002 4997 4991 4981 4969 4958 4948 4937 4928 4920 4916 4912 4908 4906 4906 4906 4906 4906 4905 4904 4906 4905 4906 4907 4910 4914
5273 5240 5245 5239 5235 5234 5220 5211 5203 5200 5181 5168 5162 5142 5122 5099 5097 5079 5084 5084 5068 5068 5063 5056 5051 5037 5026 5016 5010 5003 4995 4985 4971 4960 4953 4942 4931 4924 4918 4915 4912 4912 4911 4909 4906 4905 4904 4904 4905 4905 4905 4905 4907 4911
5240 5219 5236 5237 5230 5239 5226 5216 5209 5192 5175 5157 5137 5110 5092 5098 5096 5097 5091 5085 5080 5074 5067 5063 5053 5042 5034 5026 5015 5007 4997 4989 4977 4965 4959 4950 4939 4929 4918 4917 4914 4915 4914 4911 4908 4907 4907 4908 4908 4907 4907 4907 4913 4916
5237 5224 5221 5223 5223 5218 5210 5201 5197 5194 5177 5163 5135 5114 5109 5110 5100 5109 5099 5089 5088 5083 5079 5069 5058 5047 5038 5029 5022 5013 5002 4991 4982 4975 4967 4958 4949 4940 4933 4927 4921 4920 4918 4915 4913 4912 4912 4912 4912 4911 4911 4912 4910 4911
5221 5224 5230 5218 5216 5215 5213 5204 5196 5184 5174 5158 5148 5130 5141 5138 5134 5116 5108 5100 5093 5086 5076 5067 5059 5051 5043 5034 5025 5016 5005 4996 4989 4982 4974 4968 4961 4955 4949 4941 4933 4931 4927 4921 4920 4917 4917 4917 4917 4917 4918 4918 4917 4915
5216 5216 5222 5209 5206 5197 5189 5192 5186 5173 5165 5163 5157 5138 5127 5126 5119 5113 5109 5103 5094 5087 5075 5067 5059 5048 5042 5035 5027 5019 5011 5003 4992 4980 4972 4966 4965 4965 4958 4950 4944 4938 4933 4927 4925 4924 4924 4929 4924 4921 4917 4916 4917 4917
5210 5211 5212 5199 5199 5182 5157 5149 5150 5146 5149 5144 5141 5135 5133 5126 5119 5114 5112 5102 5096 5088 5080 5071 5062 5052 5045 5037 5030 5025 5018 5011 5003 4992 4977 4973 4971 4969 4964 4960 4954 4949 4944 4937 4931 4927 4929 4924 4922 4919 4918 4919 4920 4921
5204 5206 5193 5179 5160 5147 5143 5140 5142 5147 5134 5125 5119 5129 5129 5116 5123 5120 5116 5109 5100 5089 5080 5070 5062 5053 5051 5042 5033 5026 5023 5019 5010 5003 4995 4989 4985 4980 4976 4972 4967 4962 4955 4948 4941 4935 4929 4927 4923 4921 4922 4919 4919 4919
5195 5193 5198 5183 5156 5140 5137 5137 5131 5131 5124 5129 5123 5112 5118 5125 5124 5125 5124 5114 5102 5095 5097 5088 5076 5074 5067 5060 5052 5045 5043 5030 5021 5014 5008 5003 5001 4999 4993 4988 4980 4972 4964 4957 4950 4944 4939 4934 4931 4928 4927 4923 4922 4921
5184 5184 5180 5167 5151 5147 5143 5144 5137 5134 5127 5121 5121 5109 5106 5116 5129 5135 5130 5127 5123 5119 5110 5102 5093 5085 5077 5069 5061 5053 5048 5039 5032 5028 5025 5021 5022 5019 5009 5000 4991 4983 4974 4967 4960 4954 4949 4944 4941 4938 4935 4932 4931 4930